Location: Stara Lesna
(49.1528°N, 20.2911°E)
Time: 09:19:33
(UTC+02:00)

BREEZE-M DEB (TANK) - Pass Details

Date: 21 September 2019
Orbit: 325 x 13808 km, 49.6° (Epoch: 18 October)

Event Time Altitude Azimuth Distance (km) Brightness Sun altitude
Exits shadow 04:28:15 34° 217° (SW) 1,173 4.0 -19.0°
Maximum altitude 04:29:46 51° 162° (SSE) 724 3.3 -18.8°
Drops below altitude 10° 04:32:26 10° 83° (E) 1,445 6.1 -18.4°
Sets 04:33:53 0° 77° (ENE) 2,146 7.4 -18.1°
